User: anonymous   Login
Location: Unspecified
(0.0000°N, 0.0000°E)
Time: 06:58:19
(UTC+00:00)
Language:

Transit VE-3 - Orbit

View from above orbital plane
View from above orbital plane
View from above satellite
View from above satellite

Ground track
Ground track

The orbit data is extracted from the following two-line orbital elements,

1   705U 63049C   17202.95674081 +.00000048 +00000-0 +63229-4 0  9994
2   705 089.9168 100.3752 0031997 250.0449 168.4330 13.47305828634241
Epoch (UTC): 21 July 2017 22:57:42
Eccentricity: 0.0031997
inclination: 89.9168°
perigee height: 1058 km
apogee height: 1106 km
right ascension of ascending node: 100.3752°
argument of perigee: 250.0449°
revolutions per day: 13.47305828
mean anomaly at epoch: 168.4330°
orbit number at epoch: 63424

The dashed part of the orbit path shows where the satellite is in the earth's shadow,  

DLR